Pilot No. 4 — WDA5463 — position and weather

sailwx.info

Track history (hours):
 
Tides and Currents Weather Stations Pressure Air Temp Water Temp Dewpoint Dewpoint Depression Visibility Wind Speed Wind Dir Waves Ship Positions

Pilot No. 4

More information available from US FCC via Universal Licensing System and Coast Guard Vessel Documentation Center.

Last reported at 2014-Jul-27 11:15 UTC. Time now 2014-Jul-28 04:19 UTC.
Position N 26°05' W 080°05'.

MMSI: 495270931.

Date/timePositionNaut miles runAvg speedWind from/ knotsBaromVisibWave heightAir tempDewpointWater temp
2014-Jul-27 11:15N 26°05' W 080°05'2 2.9
2014-Jul-27 10:31N 26°06' W 080°07'3 2.6
2014-Jul-27 09:34N 26°05' W 080°05'2 2.3
2014-Jul-27 08:34N 26°05' W 080°07'1 0.1
2014-Jul-26 22:19N 26°06' W 080°07'1 1.8
2014-Jul-26 21:33N 26°06' W 080°06'1 1.1
2014-Jul-26 20:33N 26°06' W 080°07'1 1.3
2014-Jul-26 19:33N 26°04' W 080°07'1 1.0
2014-Jul-26 18:33N 26°05' W 080°07'1 1.2
2014-Jul-26 17:33N 26°06' W 080°06'1 1.3
2014-Jul-26 16:34N 26°05' W 080°07'0 0.1
2014-Jul-26 12:33N 26°05' W 080°07'0 0.3
2014-Jul-26 11:33N 26°06' W 080°07'4 3.6
2014-Jul-26 10:33N 26°06' W 080°03'3 3.5
2014-Jul-26 09:33N 26°05' W 080°07'0 0.3
2014-Jul-26 08:33N 26°05' W 080°07'1 0.1
2014-Jul-26 02:32N 26°06' W 080°07'4 4.0
2014-Jul-26 01:33N 26°04' W 080°04'4 3.9
2014-Jul-26 00:33N 26°06' W 080°07'0 0.0
2014-Jul-25 23:33N 26°06' W 080°07'0 0.0
2014-Jul-25 22:33N 26°06' W 080°07'0 0.2
2014-Jul-25 21:33N 26°06' W 080°07'1 0.9
2014-Jul-25 20:33N 26°05' W 080°07'1 0.8
2014-Jul-25 19:18N 26°06' W 080°07'1 1.1
2014-Jul-25 18:33N 26°05' W 080°07'1 0.5
2014-Jul-25 17:19N 26°06' W 080°07'0 0.7
2014-Jul-25 16:34N 26°06' W 080°07'0 0.1
2014-Jul-25 13:14N 26°06' W 080°07'0 0.5
2014-Jul-25 12:33N 26°06' W 080°07'1 0.7
2014-Jul-25 11:33N 26°06' W 080°07'0 0.0
2014-Jul-25 10:33N 26°06' W 080°07'3 2.9
2014-Jul-25 09:33N 26°05' W 080°04'2 2.2
2014-Jul-25 08:33N 26°05' W 080°07'0 0.4
2014-Jul-25 07:33N 26°06' W 080°07'0 0.1
2014-Jul-25 06:33N 26°06' W 080°07'1 0.2
2014-Jul-25 02:33N 26°06' W 080°06'1 0.6
2014-Jul-25 01:33N 26°06' W 080°07'0 0.1
2014-Jul-24 22:16N 26°06' W 080°07'1 1.4
2014-Jul-24 21:33N 26°06' W 080°06'4 3.7
2014-Jul-24 20:33N 26°04' W 080°03'5 1.4
2014-Jul-24 17:06N 26°06' W 080°07'0 0.0
2014-Jul-23 05:21N 26°06' W 080°07'3 3.4
2014-Jul-23 04:33N 26°05' W 080°04'3 0.3
2014-Jul-22 18:07N 26°06' W 080°07'1 1.8
2014-Jul-22 17:33N 26°06' W 080°06'1 0.2
2014-Jul-22 14:33N 26°05' W 080°07'0 0.1
2014-Jul-22 13:34N 26°05' W 080°07'0 0.1
2014-Jul-22 12:33N 26°06' W 080°07'1 0.0
2014-Jul-21 18:33N 26°06' W 080°07'0 0.1
2014-Jul-21 16:34N 26°06' W 080°07'1 0.8
2014-Jul-21 15:33N 26°05' W 080°07'  
2014-Jul-17 23:16N 26°06' W 080°07'0 0.0
2014-Jul-17 22:33N 26°06' W 080°07'0 0.0
2014-Jul-17 21:33N 26°06' W 080°07'0 0.0
2014-Jul-17 20:33N 26°06' W 080°07'0 0.0
2014-Jul-17 19:33N 26°06' W 080°07'0 0.0
2014-Jul-17 18:33N 26°06' W 080°07'0 0.0
2014-Jul-17 17:33N 26°06' W 080°07'0 0.0
2014-Jul-17 16:33N 26°06' W 080°07'2 1.1
2014-Jul-17 14:34N 26°04' W 080°06'7 6.9
2014-Jul-17 13:33N 25°57' W 080°06'  
Track history (hours):
 
Tides and Currents Weather Stations Pressure Air Temp Water Temp Dewpoint Dewpoint Depression Visibility Wind Speed Wind Dir Waves Ship Positions

Pilot No. 4

More information available from US FCC via Universal Licensing System and Coast Guard Vessel Documentation Center.

Last reported at 2014-Jul-27 11:15 UTC. Time now 2014-Jul-28 04:19 UTC.
Position N 26°05' W 080°05'.

MMSI: 495270931.

Date/timePositionNaut miles runAvg speedWind from/ knotsBaromVisibWave heightAir tempDewpointWater temp
2014-Jul-27 11:15N 26°05' W 080°05'2 2.9
2014-Jul-27 10:31N 26°06' W 080°07'3 2.6
2014-Jul-27 09:34N 26°05' W 080°05'2 2.3
2014-Jul-27 08:34N 26°05' W 080°07'1 0.1
2014-Jul-26 22:19N 26°06' W 080°07'1 1.8
2014-Jul-26 21:33N 26°06' W 080°06'1 1.1
2014-Jul-26 20:33N 26°06' W 080°07'1 1.3
2014-Jul-26 19:33N 26°04' W 080°07'1 1.0
2014-Jul-26 18:33N 26°05' W 080°07'1 1.2
2014-Jul-26 17:33N 26°06' W 080°06'1 1.3
2014-Jul-26 16:34N 26°05' W 080°07'0 0.1
2014-Jul-26 12:33N 26°05' W 080°07'0 0.3
2014-Jul-26 11:33N 26°06' W 080°07'4 3.6
2014-Jul-26 10:33N 26°06' W 080°03'3 3.5
2014-Jul-26 09:33N 26°05' W 080°07'0 0.3
2014-Jul-26 08:33N 26°05' W 080°07'1 0.1
2014-Jul-26 02:32N 26°06' W 080°07'4 4.0
2014-Jul-26 01:33N 26°04' W 080°04'4 3.9
2014-Jul-26 00:33N 26°06' W 080°07'0 0.0
2014-Jul-25 23:33N 26°06' W 080°07'0 0.0
2014-Jul-25 22:33N 26°06' W 080°07'0 0.2
2014-Jul-25 21:33N 26°06' W 080°07'1 0.9
2014-Jul-25 20:33N 26°05' W 080°07'1 0.8
2014-Jul-25 19:18N 26°06' W 080°07'1 1.1
2014-Jul-25 18:33N 26°05' W 080°07'1 0.5
2014-Jul-25 17:19N 26°06' W 080°07'0 0.7
2014-Jul-25 16:34N 26°06' W 080°07'0 0.1
2014-Jul-25 13:14N 26°06' W 080°07'0 0.5
2014-Jul-25 12:33N 26°06' W 080°07'1 0.7
2014-Jul-25 11:33N 26°06' W 080°07'0 0.0
2014-Jul-25 10:33N 26°06' W 080°07'3 2.9
2014-Jul-25 09:33N 26°05' W 080°04'2 2.2
2014-Jul-25 08:33N 26°05' W 080°07'0 0.4
2014-Jul-25 07:33N 26°06' W 080°07'0 0.1
2014-Jul-25 06:33N 26°06' W 080°07'1 0.2
2014-Jul-25 02:33N 26°06' W 080°06'1 0.6
2014-Jul-25 01:33N 26°06' W 080°07'0 0.1
2014-Jul-24 22:16N 26°06' W 080°07'1 1.4
2014-Jul-24 21:33N 26°06' W 080°06'4 3.7
2014-Jul-24 20:33N 26°04' W 080°03'5 1.4
2014-Jul-24 17:06N 26°06' W 080°07'0 0.0
2014-Jul-23 05:21N 26°06' W 080°07'3 3.4
2014-Jul-23 04:33N 26°05' W 080°04'3 0.3
2014-Jul-22 18:07N 26°06' W 080°07'1 1.8
2014-Jul-22 17:33N 26°06' W 080°06'1 0.2
2014-Jul-22 14:33N 26°05' W 080°07'0 0.1
2014-Jul-22 13:34N 26°05' W 080°07'0 0.1
2014-Jul-22 12:33N 26°06' W 080°07'1 0.0
2014-Jul-21 18:33N 26°06' W 080°07'0 0.1
2014-Jul-21 16:34N 26°06' W 080°07'1 0.8
2014-Jul-21 15:33N 26°05' W 080°07'  
2014-Jul-17 23:16N 26°06' W 080°07'0 0.0
2014-Jul-17 22:33N 26°06' W 080°07'0 0.0
2014-Jul-17 21:33N 26°06' W 080°07'0 0.0
2014-Jul-17 20:33N 26°06' W 080°07'0 0.0
2014-Jul-17 19:33N 26°06' W 080°07'0 0.0
2014-Jul-17 18:33N 26°06' W 080°07'0 0.0
2014-Jul-17 17:33N 26°06' W 080°07'0 0.0
2014-Jul-17 16:33N 26°06' W 080°07'2 1.1
2014-Jul-17 14:34N 26°04' W 080°06'7 6.9
2014-Jul-17 13:33N 25°57' W 080°06'  

Dump ship's entire track history